Weather History for KIZG - December, 2011

Change the Weather History Date:

Thursday, December 22, 2011

  Actual Average Record
Temperature  
Mean Temperature 40 °F -  
Max Temperature 50 °F 31 °F 50 °F (2011)
Min Temperature 30 °F 11 °F -5 °F (2004)
Degree Days  
Heating Degree Days 25    
Moisture  
Dew Point 31 °F    
Average Humidity 81    
Maximum Humidity 100    
Minimum Humidity 44    
Precipitation  
Precipitation 0.01 in - - ()
Sea Level Pressure  
Sea Level Pressure 29.82 in    
Wind  
Wind Speed 2 mph (West)    
Max Wind Speed 14 mph    
Max Gust Speed 29 mph    
Visibility 7 miles    
Events      
Averages and records for this station are not official NWS values.
T = Trace of Precipitation, MM = Missing Value Source: NWS Daily Summary

Daily Weather History Graph

Daily Weather History Graph

Search for Another Location

Airport or City:

Trip Planner

Search our weather history database for the weather conditions in past years. The results will help you decide how hot, cold, wet, or windy it might be!

Date:

Astronomy

Dec. 22, 2011 Rise Set
Actual Time 7:15 AM EST 4:08 PM EST
Civil Twilight 6:42 AM EST 4:42 PM EST
Nautical Twilight 6:05 AM EST 5:18 PM EST
Astronomical Twilight 5:30 AM EST 5:53 PM EST
Moon 4:55 AM EST (12/22) 2:16 PM EST (12/22)
Length of Visible Light 9h 59m
Length of Day
8h 53m
Waning Crescent, 6% of the Moon is Illuminated
Dec 22
Waning Crescent
Dec 24
New
Jan 1
First Quarter
Jan 9
Full
Jan 16
Last Quarter

Hourly Weather History & Observations

Time (EST) Temp. Windchill Dew Point Humidity Pressure Visibility Wind Dir Wind Speed Gust Speed Precip Events Conditions
12:14 AM 32.0 °F - 32.0 °F 100% 29.58 in 3.0 mi Calm Calm - N/A   Overcast
12:54 AM 33.1 °F - 32.0 °F 96% 29.59 in 3.0 mi Calm Calm - N/A   Overcast
1:09 AM 33.8 °F - 32.0 °F 93% 29.57 in 2.5 mi Calm Calm - N/A   Overcast
1:16 AM 33.8 °F - 32.0 °F 93% 29.57 in 3.0 mi Calm Calm - N/A   Overcast
1:54 AM 32.0 °F - 32.0 °F 100% 29.60 in 3.0 mi Calm Calm - N/A   Overcast
2:04 AM 33.8 °F - 32.0 °F 93% 29.59 in 2.5 mi Calm Calm - N/A   Mostly Cloudy
2:07 AM 33.8 °F - 32.0 °F 93% 29.60 in 3.0 mi Calm Calm - N/A   Mostly Cloudy
2:21 AM 33.8 °F - 32.0 °F 93% 29.60 in 5.0 mi Calm Calm - N/A   Mostly Cloudy
2:54 AM 33.1 °F - 32.0 °F 96% 29.63 in 5.0 mi Calm Calm - N/A   Overcast
3:54 AM 33.1 °F - 32.0 °F 96% 29.65 in 8.0 mi Calm Calm - N/A   Overcast
4:54 AM 33.1 °F - 32.0 °F 96% 29.68 in 6.0 mi Calm Calm - N/A   Mostly Cloudy
5:54 AM 35.1 °F 27.4 °F 33.1 °F 92% 29.74 in 8.0 mi WNW 10.4 mph 16.1 mph 0.01 in   Overcast
6:54 AM 46.9 °F - 39.0 °F 74% 29.79 in 10.0 mi WNW 13.8 mph 28.8 mph N/A   Clear
8:54 AM 45.0 °F 39.3 °F 35.1 °F 68% 29.90 in 10.0 mi West 11.5 mph 27.6 mph N/A   Clear
9:54 AM 46.9 °F - 32.0 °F 56% 29.94 in 10.0 mi WNW 10.4 mph 24.2 mph N/A   Clear
11:54 AM 48.9 °F - 28.0 °F 44% 29.92 in 10.0 mi West 5.8 mph - N/A   Clear
12:54 PM 50.0 °F - 28.9 °F 44% 29.95 in 10.0 mi West 4.6 mph - N/A   Clear
1:54 PM 48.0 °F - 28.0 °F 46% 29.96 in 10.0 mi WNW 5.8 mph - N/A   Clear
2:54 PM 46.9 °F - 27.0 °F 46% 29.98 in 10.0 mi WNW 8.1 mph - N/A   Clear
4:54 PM 37.0 °F 34.5 °F 27.0 °F 67% 30.03 in 10.0 mi WSW 3.5 mph - N/A   Clear
5:54 PM 34.0 °F 29.8 °F 27.0 °F 75% 30.05 in 10.0 mi WSW 4.6 mph - N/A   Clear
6:54 PM 30.0 °F - 27.0 °F 88% 30.08 in 10.0 mi Calm Calm - N/A   Clear
7:54 PM 30.0 °F 26.5 °F 27.0 °F 88% 30.06 in 10.0 mi WSW 3.5 mph - N/A   Clear
9:54 PM 30.0 °F - 28.0 °F 92% 30.05 in 10.0 mi Calm Calm - N/A   Clear
10:54 PM 30.9 °F - 28.0 °F 89% 30.05 in 10.0 mi Calm Calm - N/A   Scattered Clouds
11:54 PM 30.9 °F 27.5 °F 28.9 °F 92% 30.07 in 10.0 mi SSW 3.5 mph - N/A   Overcast